Home   Weather   Telford   Past weeks

Flag for United Kingdom Past Weather in Telford, England, United Kingdom — Yesterday and Last 2 Weeks

Now
28 °F

Fog.


Feels Like: 28 °F
Forecast: N/A
Wind: 2 mph from Southwest

Location: Shawbury

Current Time: Jan 23, 2017 at 11:09:52 pm

Latest Report: Jan 23, 2017 at 9:50 pm


Visibility: 0 mi

Pressure: 30.30 "Hg

Humidity: 100%

Dew Point: 28 °F

Location of TelfordLocation

Past Weather in Telford — Graph

°F

Telford Temperature Yesterday

Maximum temperature yesterday: 39 °F (at 3:50 pm)
Minimum temperature yesterday: 30 °F (at 12:50 am)
Average temperature yesterday: 35 °F

High & Low Weather Summary for the Past Weeks

 TemperatureHumidityPressure
High54 °F (Jan 11, 3:50 am)100% (Jan 14, 12:50 am)30.66 "Hg (Jan 14, 12:50 am)
Low27 °F (Jan 21, 5:50 am)46% (Jan 11, 2:50 pm)29.45 "Hg (Jan 12, 4:21 pm)
Average41 °F88%30.20 "Hg
* Reported Jan 8 9:50 pm — Jan 23 9:50 pm, Telford, Weather by CustomWeather, © 2017

Note: Actual official high and low records may vary slightly from our data, if they occured in-between our weather recording intervals... More about our weather records

Advertising

Telford Weather History for the Previous 24 Hours

Scroll right to see more
 ConditionsComfort  
Time TempWeatherWind HumidityBarometerVisibility
9:50 pm
Mon, Jan 23
28 °FFog.2 mph100%30.30 "Hg0 mi
8:50 pm28 °FFog.1 mph100%30.30 "Hg0 mi
7:50 pm32 °FFog.1 mph100%30.30 "Hg0 mi
6:50 pm32 °FFog.1 mph100%30.30 "Hg0 mi
5:50 pm37 °FPassing clouds.No wind93%30.30 "Hg1 mi
4:50 pm43 °FFog.1 mph93%30.30 "Hg2 mi
3:50 pm45 °FScattered clouds.2 mph87%30.30 "Hg3 mi
2:50 pm45 °FPartly sunny.2 mph87%30.30 "Hg3 mi
1:50 pm45 °FPartly sunny.5 mph87%30.30 "Hg3 mi
1:14 pm43 °FPartly sunny.3 mph87%30.30 "Hg3 mi
12:50 pm41 °FPartly sunny.2 mph93%30.30 "Hg3 mi
11:50 am39 °FFog.2 mph93%30.33 "Hg2 mi
11:30 am37 °FFog.1 mph100%30.33 "Hg1 mi
10:50 am36 °FFog.No wind100%30.33 "Hg1 mi
10:40 am36 °FFog.1 mph100%30.33 "Hg1 mi
9:50 am34 °FFog.1 mph100%30.33 "Hg0 mi
8:50 am34 °FFog.2 mph93%30.33 "Hg0 mi
7:50 am32 °FFog.1 mph100%30.33 "Hg0 mi
6:50 am32 °FIce fog.2 mph100%30.33 "Hg0 mi
5:50 am30 °FIce fog.1 mph100%30.30 "Hg0 mi
4:50 am32 °FFog.1 mph100%30.30 "Hg0 mi
3:50 am34 °FFog.1 mph100%30.30 "Hg0 mi
2:50 am34 °FFog.1 mph100%30.30 "Hg1 mi
1:50 am34 °FFog.1 mph100%30.30 "Hg0 mi
12:50 am36 °FFog.3 mph100%30.30 "Hg1 mi
11:50 pm
Sun, Jan 22
37 °FFog.3 mph93%30.33 "Hg1 mi
Weather by CustomWeather, © 2017

See weather overviewHow to use our weather pages